Year,Month,Day,Hour,Minute,Value (Times are PST for temperature in C)
2009,06,01,00,00,15.10
2009,06,01,00,01,15.00
2009,06,01,00,02,15.00
2009,06,01,00,03,14.90
2009,06,01,00,04,14.90
2009,06,01,00,05,14.80
2009,06,01,00,06,14.80
2009,06,01,00,07,14.80
2009,06,01,00,08,14.80
2009,06,01,00,09,14.80
2009,06,01,00,10,14.80
2009,06,01,00,11,14.80
2009,06,01,00,12,14.90
2009,06,01,00,13,15.00
2009,06,01,00,14,15.00
2009,06,01,00,15,15.00
2009,06,01,00,16,15.10
2009,06,01,00,17,15.10
2009,06,01,00,18,15.20
2009,06,01,00,19,15.20
2009,06,01,00,20,15.20
2009,06,01,00,21,15.20
2009,06,01,00,22,15.30
2009,06,01,00,23,15.20
2009,06,01,00,24,15.30
2009,06,01,00,25,15.30
2009,06,01,00,26,15.30
2009,06,01,00,27,15.30
2009,06,01,00,28,15.30
2009,06,01,00,29,15.30
2009,06,01,00,30,15.30
2009,06,01,00,31,15.30
2009,06,01,00,32,15.30
2009,06,01,00,33,15.30
2009,06,01,00,34,15.30
2009,06,01,00,35,15.20
2009,06,01,00,36,15.20
2009,06,01,00,37,15.20
2009,06,01,00,38,15.20
2009,06,01,00,39,15.20
2009,06,01,00,40,15.10
2009,06,01,00,41,15.10
2009,06,01,00,42,15.00
2009,06,01,00,43,15.00
2009,06,01,00,44,14.90
2009,06,01,00,45,14.80
2009,06,01,00,46,14.80
2009,06,01,00,47,14.70
2009,06,01,00,48,14.70
2009,06,01,00,49,14.60
2009,06,01,00,50,14.60
2009,06,01,00,51,14.60
2009,06,01,00,52,14.60
2009,06,01,00,53,14.70
2009,06,01,00,54,14.80
2009,06,01,00,55,14.80
2009,06,01,00,56,15.00
2009,06,01,00,57,15.00
2009,06,01,00,58,15.10
2009,06,01,00,59,15.10
2009,06,01,01,00,15.10
2009,06,01,01,01,15.10
2009,06,01,01,02,15.10
2009,06,01,01,03,15.20
2009,06,01,01,04,15.20
2009,06,01,01,05,15.20
2009,06,01,01,06,15.30
2009,06,01,01,07,15.30
2009,06,01,01,08,15.40
2009,06,01,01,09,15.50
2009,06,01,01,10,15.50
2009,06,01,01,11,15.60
2009,06,01,01,12,15.60
2009,06,01,01,13,15.60
2009,06,01,01,14,15.60
2009,06,01,01,15,15.60
2009,06,01,01,16,15.70
2009,06,01,01,17,15.70
2009,06,01,01,18,15.70
2009,06,01,01,19,15.70
2009,06,01,01,20,15.70
2009,06,01,01,21,15.70
2009,06,01,01,22,15.70
2009,06,01,01,23,15.80
2009,06,01,01,24,15.80
2009,06,01,01,25,15.80
2009,06,01,01,26,15.80
2009,06,01,01,27,15.80
2009,06,01,01,28,15.80
2009,06,01,01,29,15.70
2009,06,01,01,30,15.70
2009,06,01,01,31,15.60
2009,06,01,01,32,15.60
2009,06,01,01,33,15.50
2009,06,01,01,34,15.50
2009,06,01,01,35,15.40
2009,06,01,01,36,15.30
2009,06,01,01,37,15.30
2009,06,01,01,38,15.30
2009,06,01,01,39,15.30
2009,06,01,01,40,15.20
2009,06,01,01,41,15.10
2009,06,01,01,42,15.00
2009,06,01,01,43,14.90
2009,06,01,01,44,14.80
2009,06,01,01,45,14.80
2009,06,01,01,46,14.70
2009,06,01,01,47,14.70
2009,06,01,01,48,14.70
2009,06,01,01,49,14.70
2009,06,01,01,50,14.80
2009,06,01,01,51,14.80
2009,06,01,01,52,14.80
2009,06,01,01,53,14.90
2009,06,01,01,54,15.00
2009,06,01,01,55,15.00
2009,06,01,01,56,15.10
2009,06,01,01,57,15.20
2009,06,01,01,58,15.20
2009,06,01,01,59,15.30
2009,06,01,02,00,15.30
2009,06,01,02,01,15.30
2009,06,01,02,02,15.30
2009,06,01,02,03,15.30
2009,06,01,02,04,15.30
2009,06,01,02,05,15.30
2009,06,01,02,06,15.30
2009,06,01,02,07,15.30
2009,06,01,02,08,15.30
2009,06,01,02,09,15.30
2009,06,01,02,10,15.30
2009,06,01,02,11,15.30
2009,06,01,02,12,15.30
2009,06,01,02,13,15.30
2009,06,01,02,14,15.20
2009,06,01,02,15,15.20
2009,06,01,02,16,15.20
2009,06,01,02,17,15.20
2009,06,01,02,18,15.20
2009,06,01,02,19,15.20
2009,06,01,02,20,15.20
2009,06,01,02,21,15.10
2009,06,01,02,22,15.10
2009,06,01,02,23,15.10
2009,06,01,02,24,15.10
2009,06,01,02,25,15.10
2009,06,01,02,26,15.10
2009,06,01,02,27,15.10
2009,06,01,02,28,15.10
2009,06,01,02,29,15.10
2009,06,01,02,30,15.20
2009,06,01,02,31,15.20
2009,06,01,02,32,15.20
2009,06,01,02,33,15.20
2009,06,01,02,34,15.20
2009,06,01,02,35,15.30
2009,06,01,02,36,15.30
2009,06,01,02,37,15.30
2009,06,01,02,38,15.30
2009,06,01,02,39,15.30
2009,06,01,02,40,15.30
2009,06,01,02,41,15.30
2009,06,01,02,42,15.30
2009,06,01,02,43,15.30
2009,06,01,02,44,15.30
2009,06,01,02,45,15.30
2009,06,01,02,46,15.30
2009,06,01,02,47,15.30
2009,06,01,02,48,15.30
2009,06,01,02,49,15.30
2009,06,01,02,50,15.30
2009,06,01,02,51,15.30
2009,06,01,02,52,15.20
2009,06,01,02,53,15.20
2009,06,01,02,54,15.10
2009,06,01,02,55,15.10
2009,06,01,02,56,15.10
2009,06,01,02,57,15.00
2009,06,01,02,58,15.00
2009,06,01,02,59,14.90
2009,06,01,03,00,14.90
2009,06,01,03,01,14.90
2009,06,01,03,02,14.90
2009,06,01,03,03,14.90
2009,06,01,03,04,14.80
2009,06,01,03,05,14.80
2009,06,01,03,06,14.80
2009,06,01,03,07,14.80
2009,06,01,03,08,14.90
2009,06,01,03,09,14.90
2009,06,01,03,10,14.90
2009,06,01,03,11,14.90
2009,06,01,03,12,15.00
2009,06,01,03,13,15.00
2009,06,01,03,14,15.00
2009,06,01,03,15,15.10
2009,06,01,03,16,15.10
2009,06,01,03,17,15.10
2009,06,01,03,18,15.20
2009,06,01,03,19,15.20
2009,06,01,03,20,15.10
2009,06,01,03,21,15.10
2009,06,01,03,22,15.10
2009,06,01,03,23,15.00
2009,06,01,03,24,15.00
2009,06,01,03,25,14.90
2009,06,01,03,26,14.90
2009,06,01,03,27,14.80
2009,06,01,03,28,14.80
2009,06,01,03,29,14.80
2009,06,01,03,30,14.70
2009,06,01,03,31,14.70
2009,06,01,03,32,14.60
2009,06,01,03,33,14.60
2009,06,01,03,34,14.60
2009,06,01,03,35,14.50
2009,06,01,03,36,14.50
2009,06,01,03,37,14.50
2009,06,01,03,38,14.50
2009,06,01,03,39,14.50
2009,06,01,03,40,14.40
2009,06,01,03,41,14.40
2009,06,01,03,42,14.40
2009,06,01,03,43,14.40
2009,06,01,03,44,14.30
2009,06,01,03,45,14.30
2009,06,01,03,46,14.30
2009,06,01,03,47,14.30
2009,06,01,03,48,14.30
2009,06,01,03,49,14.20
2009,06,01,03,50,14.20
2009,06,01,03,51,14.20
2009,06,01,03,52,14.20
2009,06,01,03,53,14.20
2009,06,01,03,54,14.20
2009,06,01,03,55,14.20
2009,06,01,03,56,14.20
2009,06,01,03,57,14.20
2009,06,01,03,58,14.20
2009,06,01,03,59,14.20
2009,06,01,04,00,14.20
2009,06,01,04,01,14.10
2009,06,01,04,02,14.10
2009,06,01,04,03,14.10
2009,06,01,04,04,14.10
2009,06,01,04,05,14.10
2009,06,01,04,06,14.10
2009,06,01,04,07,14.10
2009,06,01,04,08,14.20
2009,06,01,04,09,14.20
2009,06,01,04,10,14.20
2009,06,01,04,11,14.20
2009,06,01,04,12,14.20
2009,06,01,04,13,14.20
2009,06,01,04,14,14.20
2009,06,01,04,15,14.20
2009,06,01,04,16,14.20
2009,06,01,04,17,14.20
2009,06,01,04,18,14.20
2009,06,01,04,19,14.20
2009,06,01,04,20,14.20
2009,06,01,04,21,14.20
2009,06,01,04,22,14.30
2009,06,01,04,23,14.40
2009,06,01,04,24,14.50
2009,06,01,04,25,14.50
2009,06,01,04,26,14.60
2009,06,01,04,27,14.60
2009,06,01,04,28,14.70
2009,06,01,04,29,14.70
2009,06,01,04,30,14.80
2009,06,01,04,31,14.80
2009,06,01,04,32,14.80
2009,06,01,04,33,14.80
2009,06,01,04,34,14.70
2009,06,01,04,35,14.70
2009,06,01,04,36,14.60
2009,06,01,04,37,14.60
2009,06,01,04,38,14.60
2009,06,01,04,39,14.50
2009,06,01,04,40,14.50
2009,06,01,04,41,14.50
2009,06,01,04,42,14.50
2009,06,01,04,43,14.50
2009,06,01,04,44,14.40
2009,06,01,04,45,14.40
2009,06,01,04,46,14.40
2009,06,01,04,47,14.40
2009,06,01,04,48,14.30
2009,06,01,04,49,14.30
2009,06,01,04,50,14.30
2009,06,01,04,51,14.30
2009,06,01,04,52,14.30
2009,06,01,04,53,14.20
2009,06,01,04,54,14.20
2009,06,01,04,55,14.20
2009,06,01,04,56,14.20
2009,06,01,04,57,14.20
2009,06,01,04,58,14.10
2009,06,01,04,59,14.10
2009,06,01,05,00,14.10
2009,06,01,05,01,14.00
2009,06,01,05,02,14.00
2009,06,01,05,03,14.00
2009,06,01,05,04,13.90
2009,06,01,05,05,13.90
2009,06,01,05,06,13.90
2009,06,01,05,07,13.80
2009,06,01,05,08,13.80
2009,06,01,05,09,13.70
2009,06,01,05,10,13.70
2009,06,01,05,11,13.70
2009,06,01,05,12,13.60
2009,06,01,05,13,13.60
2009,06,01,05,14,13.50
2009,06,01,05,15,13.40
2009,06,01,05,16,13.40
2009,06,01,05,17,13.40
2009,06,01,05,18,13.30
2009,06,01,05,19,13.30
2009,06,01,05,20,13.30
2009,06,01,05,21,13.30
2009,06,01,05,22,13.30
2009,06,01,05,23,13.30
2009,06,01,05,24,13.30
2009,06,01,05,25,13.30
2009,06,01,05,26,13.30
2009,06,01,05,27,13.30
2009,06,01,05,28,13.30
2009,06,01,05,29,13.20
2009,06,01,05,30,13.20
2009,06,01,05,31,13.20
2009,06,01,05,32,13.10
2009,06,01,05,33,13.10
2009,06,01,05,34,13.00
2009,06,01,05,35,13.00
2009,06,01,05,36,12.90
2009,06,01,05,37,12.80
2009,06,01,05,38,12.80
2009,06,01,05,39,12.80
2009,06,01,05,40,12.80
2009,06,01,05,41,12.80
2009,06,01,05,42,12.80
2009,06,01,05,43,12.80
2009,06,01,05,44,12.80
2009,06,01,05,45,12.80
2009,06,01,05,46,12.80
2009,06,01,05,47,12.80
2009,06,01,05,48,12.80
2009,06,01,05,49,12.80
2009,06,01,05,50,12.80
2009,06,01,05,51,12.80
2009,06,01,05,52,12.80
2009,06,01,05,53,12.80
2009,06,01,05,54,12.80
2009,06,01,05,55,12.90
2009,06,01,05,56,12.90
2009,06,01,05,57,13.00
2009,06,01,05,58,13.00
2009,06,01,05,59,13.00
2009,06,01,06,00,13.10
2009,06,01,06,01,13.10
2009,06,01,06,02,13.20
2009,06,01,06,03,13.20
2009,06,01,06,04,13.30
2009,06,01,06,05,13.30
2009,06,01,06,06,13.30
2009,06,01,06,07,13.30
2009,06,01,06,08,13.30
2009,06,01,06,09,13.30
2009,06,01,06,10,13.30
2009,06,01,06,11,13.30
2009,06,01,06,12,13.30
2009,06,01,06,13,13.30
2009,06,01,06,14,13.30
2009,06,01,06,15,13.30
2009,06,01,06,16,13.30
2009,06,01,06,17,13.30
2009,06,01,06,18,13.30
2009,06,01,06,19,13.30
2009,06,01,06,20,13.30
2009,06,01,06,21,13.30
2009,06,01,06,22,13.30
2009,06,01,06,23,13.30
2009,06,01,06,24,13.30
2009,06,01,06,25,13.30
2009,06,01,06,26,13.40
2009,06,01,06,27,13.40
2009,06,01,06,28,13.40
2009,06,01,06,29,13.50
2009,06,01,06,30,13.50
2009,06,01,06,31,13.50
2009,06,01,06,32,13.50
2009,06,01,06,33,13.60
2009,06,01,06,34,13.60
2009,06,01,06,35,13.70
2009,06,01,06,36,13.70
2009,06,01,06,37,13.70
2009,06,01,06,38,13.70
2009,06,01,06,39,13.70
2009,06,01,06,40,13.80
2009,06,01,06,41,13.80
2009,06,01,06,42,13.80
2009,06,01,06,43,13.90
2009,06,01,06,44,13.90
2009,06,01,06,45,14.10
2009,06,01,06,46,14.20
2009,06,01,06,47,14.40
2009,06,01,06,48,14.50
2009,06,01,06,49,14.60
2009,06,01,06,50,14.60
2009,06,01,06,51,14.70
2009,06,01,06,52,14.70
2009,06,01,06,53,14.70
2009,06,01,06,54,14.70
2009,06,01,06,55,14.80
2009,06,01,06,56,14.80
2009,06,01,06,57,14.80
2009,06,01,06,58,14.80
2009,06,01,06,59,14.70
2009,06,01,07,00,14.70
2009,06,01,07,01,14.70
2009,06,01,07,02,14.70
2009,06,01,07,03,14.70
2009,06,01,07,04,14.60
2009,06,01,07,05,14.60
2009,06,01,07,06,14.70
2009,06,01,07,07,14.70
2009,06,01,07,08,14.70
2009,06,01,07,09,14.70
2009,06,01,07,10,14.80
2009,06,01,07,11,14.80
2009,06,01,07,12,14.80
2009,06,01,07,13,14.90
2009,06,01,07,14,14.90
2009,06,01,07,15,15.00
2009,06,01,07,16,15.00
2009,06,01,07,17,15.10
2009,06,01,07,18,15.10
2009,06,01,07,19,15.20
2009,06,01,07,20,15.20
2009,06,01,07,21,15.20
2009,06,01,07,22,15.30
2009,06,01,07,23,15.30
2009,06,01,07,24,15.30
2009,06,01,07,25,15.30
2009,06,01,07,26,15.30
2009,06,01,07,27,15.30
2009,06,01,07,28,15.30
2009,06,01,07,29,15.40
2009,06,01,07,30,15.40
2009,06,01,07,31,15.50
2009,06,01,07,32,15.50
2009,06,01,07,33,15.50
2009,06,01,07,34,15.50
2009,06,01,07,35,15.60
2009,06,01,07,36,15.60
2009,06,01,07,37,15.70
2009,06,01,07,38,15.80
2009,06,01,07,39,15.80
2009,06,01,07,40,15.90
2009,06,01,07,41,16.00
2009,06,01,07,42,16.10
2009,06,01,07,43,16.10
2009,06,01,07,44,16.20
2009,06,01,07,45,16.30
2009,06,01,07,46,16.40
2009,06,01,07,47,16.40
2009,06,01,07,48,16.40
2009,06,01,07,49,16.50
2009,06,01,07,50,16.60
2009,06,01,07,51,16.70
2009,06,01,07,52,16.70
2009,06,01,07,53,16.80
2009,06,01,07,54,16.90
2009,06,01,07,55,16.90
2009,06,01,07,56,16.90
2009,06,01,07,57,16.90
2009,06,01,07,58,16.90
2009,06,01,07,59,16.90
2009,06,01,08,00,16.90
2009,06,01,08,01,16.80
2009,06,01,08,02,16.80
2009,06,01,08,03,16.80
2009,06,01,08,04,16.80
2009,06,01,08,05,16.80
2009,06,01,08,06,16.90
2009,06,01,08,07,16.90
2009,06,01,08,08,17.00
2009,06,01,08,09,17.00
2009,06,01,08,10,17.00
2009,06,01,08,11,17.00
2009,06,01,08,12,17.00
2009,06,01,08,13,17.00
2009,06,01,08,14,17.00
2009,06,01,08,15,17.00
2009,06,01,08,16,17.00
2009,06,01,08,17,17.00
2009,06,01,08,18,17.00
2009,06,01,08,19,17.00
2009,06,01,08,20,17.00
2009,06,01,08,21,17.00
2009,06,01,08,22,17.00
2009,06,01,08,23,17.10
2009,06,01,08,24,17.20
2009,06,01,08,25,17.30
2009,06,01,08,26,17.40
2009,06,01,08,27,17.50
2009,06,01,08,28,17.60
2009,06,01,08,29,17.70
2009,06,01,08,30,17.80
2009,06,01,08,31,17.80
2009,06,01,08,32,17.80
2009,06,01,08,33,17.80
2009,06,01,08,34,17.90
2009,06,01,08,35,17.90
2009,06,01,08,36,17.90
2009,06,01,08,37,18.00
2009,06,01,08,38,18.10
2009,06,01,08,39,18.10
2009,06,01,08,40,18.10
2009,06,01,08,41,18.20
2009,06,01,08,42,18.20
2009,06,01,08,43,18.30
2009,06,01,08,44,18.30
2009,06,01,08,45,18.40
2009,06,01,08,46,18.40
2009,06,01,08,47,18.50
2009,06,01,08,48,18.60
2009,06,01,08,49,18.70
2009,06,01,08,50,18.90
2009,06,01,08,51,18.90
2009,06,01,08,52,18.90
2009,06,01,08,53,18.90
2009,06,01,08,54,18.90
2009,06,01,08,55,18.90
2009,06,01,08,56,18.90
2009,06,01,08,57,18.90
2009,06,01,08,58,18.90
2009,06,01,08,59,18.80
2009,06,01,09,00,18.80
2009,06,01,09,01,18.80
2009,06,01,09,02,18.90
2009,06,01,09,03,18.90
2009,06,01,09,04,18.80
2009,06,01,09,05,18.80
2009,06,01,09,06,18.70
2009,06,01,09,07,18.60
2009,06,01,09,08,18.50
2009,06,01,09,09,18.30
2009,06,01,09,10,18.30
2009,06,01,09,11,18.20
2009,06,01,09,12,18.10
2009,06,01,09,13,18.10
2009,06,01,09,14,18.00
2009,06,01,09,15,17.90
2009,06,01,09,16,17.90
2009,06,01,09,17,17.90
2009,06,01,09,18,17.80
2009,06,01,09,19,17.80
2009,06,01,09,20,17.80
2009,06,01,09,21,17.90
2009,06,01,09,22,18.00
2009,06,01,09,23,18.10
2009,06,01,09,24,18.20
2009,06,01,09,25,18.40
2009,06,01,09,26,18.50
2009,06,01,09,27,18.60
2009,06,01,09,28,18.60
2009,06,01,09,29,18.70
2009,06,01,09,30,18.70
2009,06,01,09,31,18.70
2009,06,01,09,32,18.80
2009,06,01,09,33,18.90
2009,06,01,09,34,18.90
2009,06,01,09,35,18.90
2009,06,01,09,36,18.90
2009,06,01,09,37,19.00
2009,06,01,09,38,19.10
2009,06,01,09,39,19.20
2009,06,01,09,40,19.30
2009,06,01,09,41,19.30
2009,06,01,09,42,19.30
2009,06,01,09,43,19.40
2009,06,01,09,44,19.30
2009,06,01,09,45,19.30
2009,06,01,09,46,19.40
2009,06,01,09,47,19.50
2009,06,01,09,48,19.50
2009,06,01,09,49,19.60
2009,06,01,09,50,19.70
2009,06,01,09,51,19.70
2009,06,01,09,52,19.80
2009,06,01,09,53,19.70
2009,06,01,09,54,19.70
2009,06,01,09,55,19.70
2009,06,01,09,56,19.80
2009,06,01,09,57,19.80
2009,06,01,09,58,19.80
2009,06,01,09,59,19.70
2009,06,01,10,00,19.60
2009,06,01,10,01,19.50
2009,06,01,10,02,19.40
2009,06,01,10,03,19.30
2009,06,01,10,04,19.40
2009,06,01,10,05,19.50
2009,06,01,10,06,19.50
2009,06,01,10,07,19.50
2009,06,01,10,08,19.50
2009,06,01,10,09,19.30
2009,06,01,10,10,19.20
2009,06,01,10,11,19.10
2009,06,01,10,12,19.10
2009,06,01,10,13,19.10
2009,06,01,10,14,19.20
2009,06,01,10,15,19.30
2009,06,01,10,16,19.30
2009,06,01,10,17,19.40
2009,06,01,10,18,19.50
2009,06,01,10,19,19.60
2009,06,01,10,20,19.60
2009,06,01,10,21,19.50
2009,06,01,10,22,19.50
2009,06,01,10,23,19.50
2009,06,01,10,24,19.50
2009,06,01,10,25,19.50
2009,06,01,10,26,19.50
2009,06,01,10,27,19.60
2009,06,01,10,28,19.60
2009,06,01,10,29,19.60
2009,06,01,10,30,19.60
2009,06,01,10,31,19.60
2009,06,01,10,32,19.70
2009,06,01,10,33,19.70
2009,06,01,10,34,19.80
2009,06,01,10,35,20.00
2009,06,01,10,36,20.20
2009,06,01,10,37,20.30
2009,06,01,10,38,20.40
2009,06,01,10,39,20.40
2009,06,01,10,40,20.30
2009,06,01,10,41,20.30
2009,06,01,10,42,20.40
2009,06,01,10,43,20.50
2009,06,01,10,44,20.40
2009,06,01,10,45,20.40
2009,06,01,10,46,20.50
2009,06,01,10,47,20.60
2009,06,01,10,48,20.70
2009,06,01,10,49,20.80
2009,06,01,10,50,20.90
2009,06,01,10,51,20.80
2009,06,01,10,52,20.70
2009,06,01,10,53,20.60
2009,06,01,10,54,20.50
2009,06,01,10,55,20.20
2009,06,01,10,56,20.10
2009,06,01,10,57,20.10
2009,06,01,10,58,20.20
2009,06,01,10,59,20.40
2009,06,01,11,00,20.50
2009,06,01,11,01,20.70
2009,06,01,11,02,20.70
2009,06,01,11,03,20.70
2009,06,01,11,04,20.70
2009,06,01,11,05,20.70
2009,06,01,11,06,20.70
2009,06,01,11,07,20.70
2009,06,01,11,08,20.70
2009,06,01,11,09,20.70
2009,06,01,11,10,20.80
2009,06,01,11,11,21.00
2009,06,01,11,12,21.10
2009,06,01,11,13,21.20
2009,06,01,11,14,21.20
2009,06,01,11,15,21.20
2009,06,01,11,16,21.30
2009,06,01,11,17,21.20
2009,06,01,11,18,21.20
2009,06,01,11,19,21.30
2009,06,01,11,20,21.30
2009,06,01,11,21,21.50
2009,06,01,11,22,21.50
2009,06,01,11,23,21.50
2009,06,01,11,24,21.60
2009,06,01,11,25,21.70
2009,06,01,11,26,21.80
2009,06,01,11,27,22.00
2009,06,01,11,28,22.00
2009,06,01,11,29,22.00
2009,06,01,11,30,22.00
2009,06,01,11,31,22.00
2009,06,01,11,32,21.90
2009,06,01,11,33,22.00
2009,06,01,11,34,22.00
2009,06,01,11,35,22.10
2009,06,01,11,36,22.00
2009,06,01,11,37,21.90
2009,06,01,11,38,21.80
2009,06,01,11,39,21.80
2009,06,01,11,40,21.60
2009,06,01,11,41,21.60
2009,06,01,11,42,21.70
2009,06,01,11,43,21.90
2009,06,01,11,44,22.00
2009,06,01,11,45,22.10
2009,06,01,11,46,22.10
2009,06,01,11,47,22.10
2009,06,01,11,48,22.10
2009,06,01,11,49,22.20
2009,06,01,11,50,22.30
2009,06,01,11,51,22.30
2009,06,01,11,52,22.30
2009,06,01,11,53,22.20
2009,06,01,11,54,22.20
2009,06,01,11,55,22.10
2009,06,01,11,56,22.00
2009,06,01,11,57,22.00
2009,06,01,11,58,21.90
2009,06,01,11,59,21.80
2009,06,01,12,00,21.90
2009,06,01,12,01,21.90
2009,06,01,12,02,21.80
2009,06,01,12,03,21.70
2009,06,01,12,04,21.70
2009,06,01,12,05,21.60
2009,06,01,12,06,21.60
2009,06,01,12,07,21.60
2009,06,01,12,08,21.60
2009,06,01,12,09,21.60
2009,06,01,12,10,21.70
2009,06,01,12,11,21.70
2009,06,01,12,12,21.60
2009,06,01,12,13,21.50
2009,06,01,12,14,21.40
2009,06,01,12,15,21.40
2009,06,01,12,16,21.40
2009,06,01,12,17,21.40
2009,06,01,12,18,21.50
2009,06,01,12,19,21.50
2009,06,01,12,20,21.50
2009,06,01,12,21,21.40
2009,06,01,12,22,21.50
2009,06,01,12,23,21.60
2009,06,01,12,24,21.70
2009,06,01,12,25,21.70
2009,06,01,12,26,21.70
2009,06,01,12,27,21.80
2009,06,01,12,28,21.80
2009,06,01,12,29,21.90
2009,06,01,12,30,22.00
2009,06,01,12,31,22.00
2009,06,01,12,32,22.00
2009,06,01,12,33,22.10
2009,06,01,12,34,22.00
2009,06,01,12,35,22.00
2009,06,01,12,36,22.00
2009,06,01,12,37,22.00
2009,06,01,12,38,22.10
2009,06,01,12,39,22.20
2009,06,01,12,40,22.40
2009,06,01,12,41,22.60
2009,06,01,12,42,22.60
2009,06,01,12,43,22.60
2009,06,01,12,44,22.60
2009,06,01,12,45,22.50
2009,06,01,12,46,22.50
2009,06,01,12,47,22.40
2009,06,01,12,48,22.40
2009,06,01,12,49,22.50
2009,06,01,12,50,22.60
2009,06,01,12,51,22.70
2009,06,01,12,52,22.90
2009,06,01,12,53,22.90
2009,06,01,12,54,22.70
2009,06,01,12,55,22.60
2009,06,01,12,56,22.70
2009,06,01,12,57,22.70
2009,06,01,12,58,22.80
2009,06,01,12,59,23.00
2009,06,01,13,00,23.10
2009,06,01,13,01,23.30
2009,06,01,13,02,23.30
2009,06,01,13,03,23.30
2009,06,01,13,04,23.30
2009,06,01,13,05,23.40
2009,06,01,13,06,23.40
2009,06,01,13,07,23.50
2009,06,01,13,08,23.60
2009,06,01,13,09,23.40
2009,06,01,13,10,23.30
2009,06,01,13,11,23.20
2009,06,01,13,12,23.20
2009,06,01,13,13,23.20
2009,06,01,13,14,23.30
2009,06,01,13,15,23.30
2009,06,01,13,16,23.20
2009,06,01,13,17,23.20
2009,06,01,13,18,23.20
2009,06,01,13,19,23.20
2009,06,01,13,20,23.30
2009,06,01,13,21,23.30
2009,06,01,13,22,23.30
2009,06,01,13,23,23.40
2009,06,01,13,24,23.40
2009,06,01,13,25,23.40
2009,06,01,13,26,23.60
2009,06,01,13,27,23.70
2009,06,01,13,28,23.70
2009,06,01,13,29,23.80
2009,06,01,13,30,23.80
2009,06,01,13,31,23.70
2009,06,01,13,32,23.70
2009,06,01,13,33,23.70
2009,06,01,13,34,23.70
2009,06,01,13,35,23.70
2009,06,01,13,36,23.70
2009,06,01,13,37,23.70
2009,06,01,13,38,23.70
2009,06,01,13,39,23.80
2009,06,01,13,40,23.80
2009,06,01,13,41,23.70
2009,06,01,13,42,23.70
2009,06,01,13,43,23.70
2009,06,01,13,44,23.80
2009,06,01,13,45,23.70
2009,06,01,13,46,23.80
2009,06,01,13,47,23.70
2009,06,01,13,48,23.60
2009,06,01,13,49,23.60
2009,06,01,13,50,23.70
2009,06,01,13,51,23.70
2009,06,01,13,52,23.70
2009,06,01,13,53,23.70
2009,06,01,13,54,23.80
2009,06,01,13,55,23.80
2009,06,01,13,56,23.70
2009,06,01,13,57,23.70
2009,06,01,13,58,23.70
2009,06,01,13,59,23.70
2009,06,01,14,00,23.70
2009,06,01,14,01,23.70
2009,06,01,14,02,23.70
2009,06,01,14,03,23.80
2009,06,01,14,04,23.80
2009,06,01,14,05,23.80
2009,06,01,14,06,23.90
2009,06,01,14,07,23.90
2009,06,01,14,08,23.80
2009,06,01,14,09,23.80
2009,06,01,14,10,23.80
2009,06,01,14,11,23.90
2009,06,01,14,12,24.10
2009,06,01,14,13,24.10
2009,06,01,14,14,24.10
2009,06,01,14,15,24.10
2009,06,01,14,16,24.10
2009,06,01,14,17,24.10
2009,06,01,14,18,24.10
2009,06,01,14,19,24.10
2009,06,01,14,20,24.10
2009,06,01,14,21,24.10
2009,06,01,14,22,24.10
2009,06,01,14,23,24.10
2009,06,01,14,24,24.10
2009,06,01,14,25,24.20
2009,06,01,14,26,24.20
2009,06,01,14,27,24.20
2009,06,01,14,28,24.40
2009,06,01,14,29,24.50
2009,06,01,14,30,24.50
2009,06,01,14,31,24.50
2009,06,01,14,32,24.60
2009,06,01,14,33,24.80
2009,06,01,14,34,24.80
2009,06,01,14,35,24.80
2009,06,01,14,36,24.70
2009,06,01,14,37,24.70
2009,06,01,14,38,24.70
2009,06,01,14,39,24.70
2009,06,01,14,40,24.70
2009,06,01,14,41,24.70
2009,06,01,14,42,24.70
2009,06,01,14,43,24.50
2009,06,01,14,44,24.40
2009,06,01,14,45,24.30
2009,06,01,14,46,24.30
2009,06,01,14,47,24.30
2009,06,01,14,48,24.20
2009,06,01,14,49,24.10
2009,06,01,14,50,24.10
2009,06,01,14,51,24.10
2009,06,01,14,52,24.10
2009,06,01,14,53,24.10
2009,06,01,14,54,24.20
2009,06,01,14,55,24.40
2009,06,01,14,56,24.50
2009,06,01,14,57,24.60
2009,06,01,14,58,24.60
2009,06,01,14,59,24.50
2009,06,01,15,00,24.50
2009,06,01,15,01,24.40
2009,06,01,15,02,24.20
2009,06,01,15,03,24.10
2009,06,01,15,04,24.10
2009,06,01,15,05,24.10
2009,06,01,15,06,24.20
2009,06,01,15,07,24.30
2009,06,01,15,08,24.30
2009,06,01,15,09,24.30
2009,06,01,15,10,24.30
2009,06,01,15,11,24.40
2009,06,01,15,12,24.50
2009,06,01,15,13,24.70
2009,06,01,15,14,24.80
2009,06,01,15,15,24.80
2009,06,01,15,16,24.90
2009,06,01,15,17,24.80
2009,06,01,15,18,24.80
2009,06,01,15,19,24.70
2009,06,01,15,20,24.70
2009,06,01,15,21,24.70
2009,06,01,15,22,24.80
2009,06,01,15,23,24.80
2009,06,01,15,24,24.90
2009,06,01,15,25,25.00
2009,06,01,15,26,25.00
2009,06,01,15,27,25.10
2009,06,01,15,28,25.20
2009,06,01,15,29,25.30
2009,06,01,15,30,25.40
2009,06,01,15,31,25.50
2009,06,01,15,32,25.50
2009,06,01,15,33,25.40
2009,06,01,15,34,25.20
2009,06,01,15,35,25.10
2009,06,01,15,36,25.00
2009,06,01,15,37,25.00
2009,06,01,15,38,25.00
2009,06,01,15,39,25.20
2009,06,01,15,40,25.30
2009,06,01,15,41,25.30
2009,06,01,15,42,25.30
2009,06,01,15,43,25.30
2009,06,01,15,44,25.30
2009,06,01,15,45,25.30
2009,06,01,15,46,25.30
2009,06,01,15,47,25.40
2009,06,01,15,48,25.20
2009,06,01,15,49,24.90
2009,06,01,15,50,24.70
2009,06,01,15,51,24.50
2009,06,01,15,52,24.40
2009,06,01,15,53,24.30
2009,06,01,15,54,24.20
2009,06,01,15,55,24.30
2009,06,01,15,56,24.40
2009,06,01,15,57,24.50
2009,06,01,15,58,24.70
2009,06,01,15,59,24.90
2009,06,01,16,00,24.90
2009,06,01,16,01,25.00
2009,06,01,16,02,25.10
2009,06,01,16,03,25.20
2009,06,01,16,04,25.20
2009,06,01,16,05,25.30
2009,06,01,16,06,25.30
2009,06,01,16,07,25.30
2009,06,01,16,08,25.40
2009,06,01,16,09,25.50
2009,06,01,16,10,25.50
2009,06,01,16,11,25.50
2009,06,01,16,12,25.40
2009,06,01,16,13,25.50
2009,06,01,16,14,25.50
2009,06,01,16,15,25.40
2009,06,01,16,16,25.40
2009,06,01,16,17,25.40
2009,06,01,16,18,25.50
2009,06,01,16,19,25.50
2009,06,01,16,20,25.60
2009,06,01,16,21,25.70
2009,06,01,16,22,25.80
2009,06,01,16,23,25.90
2009,06,01,16,24,26.00
2009,06,01,16,25,26.20
2009,06,01,16,26,26.20
2009,06,01,16,27,26.10
2009,06,01,16,28,26.10
2009,06,01,16,29,26.20
2009,06,01,16,30,26.10
2009,06,01,16,31,26.10
2009,06,01,16,32,26.00
2009,06,01,16,33,26.00
2009,06,01,16,34,26.10
2009,06,01,16,35,26.20
2009,06,01,16,36,26.20
2009,06,01,16,37,26.20
2009,06,01,16,38,26.20
2009,06,01,16,39,26.20
2009,06,01,16,40,26.20
2009,06,01,16,41,26.30
2009,06,01,16,42,26.30
2009,06,01,16,43,26.40
2009,06,01,16,44,26.40
2009,06,01,16,45,26.40
2009,06,01,16,46,26.50
2009,06,01,16,47,26.60
2009,06,01,16,48,26.50
2009,06,01,16,49,26.40
2009,06,01,16,50,26.40
2009,06,01,16,51,26.30
2009,06,01,16,52,26.30
2009,06,01,16,53,26.30
2009,06,01,16,54,26.30
2009,06,01,16,55,26.30
2009,06,01,16,56,26.40
2009,06,01,16,57,26.40
2009,06,01,16,58,26.40
2009,06,01,16,59,26.40
2009,06,01,17,00,26.50
2009,06,01,17,01,26.60
2009,06,01,17,02,26.60
2009,06,01,17,03,26.60
2009,06,01,17,04,26.70
2009,06,01,17,05,26.80
2009,06,01,17,06,26.80
2009,06,01,17,07,26.90
2009,06,01,17,08,26.90
2009,06,01,17,09,26.90
2009,06,01,17,10,26.90
2009,06,01,17,11,26.70
2009,06,01,17,12,26.50
2009,06,01,17,13,26.30
2009,06,01,17,14,26.10
2009,06,01,17,15,25.90
2009,06,01,17,16,25.90
2009,06,01,17,17,25.80
2009,06,01,17,18,25.80
2009,06,01,17,19,25.90